Probability
0 0 0 0 0 0 0 0 0 0 0 0 0 0 0 0 0 0 0 0 0 0 0 0 0 0 0 0 0 0 0 0 0 0 0 0 0 0 0 0 0 0 0
0 0 0 0 0 0 0 0 0 0 0 0 0 0 0 0 0 0 0 0 0 0 0 0 0 0 0 0 0 0 0 0 0 0 0 0 0 0 0 0 0 0 0
0 0 0 0 0 0 0 0 0 0 0 0 0 0 0 0 0 0 0 0 0 0 0 0 0 0 0 0 0 0 0 0 0 0 0 0 0 0 0 0 0 0 0
0 0 0 0 0 0 0 0 0 0 0 0 0 0 0 0 0 0 0 0 0 0 0 0 0 0 0 0 0 0 0 0 0 0 0 0 0 0 0 0 0 0 0
0 0 0 0 0 0 0 0 0 0 0 0 0 0 0 0 0 0 0 0 0 0 0 0 0 0 0 0 0 0 0 0 0 0 0 0 0 0 0 0 0 0 0
0 0 0 0 0 0 0 0 0 0 0 0 0 0 0 0 0 0 0 0 0 0 0 0 0 0 0 0 0 0 0 0 0 0 0 0 0 0 0 0 0 0 0
0 0 0 0 0 0 0 0 0 0 0 0 0 0 0 0 0 0 0 0 0 0 0 0 0 0 0 0 0 0 0 0 0 0 0 0 0 0 0 0 0 0 0
0 0 0 0 0 0 0 0 0 0 0 0 0 0 0 0 0 0 0 0 0 0 0 0 0 0 0 0 0 0 0 0 0 0 0 0 0 0 0 0 0 0 0
0 0 0 0 0 0 0 0 0 0 0 0 0 0 0 0 0 0 0 0 0 0 0 0 0 0 0 0 0 0 0 0 0 0 0 0 0 0 0 0 0 0 0
0 0 0 0 0 0 0 0 0 0 0 0 0 0 0 0 0 0 0 0 0 0 0 0 0 0 0 0 0 0 0 0 0 0 0 0 0 0 0 0 0 0 0
0 0 0 0 0 0 0 0 0 0 0 0 0 0 0 0 0 0 0 0 0 0 0 0 0 0 0 0 0 0 0 0 0 0 0 0 0 0 0 0 0 0 0
0 0 0 0 0 0 0 0 0 0 0 0 0 0 0 0 0 0 0 0 0 0 0 0 0 0 0 0 0 0 0 0 0 0 0 0 0 0 0 0 0 0 0
0 0 0 0 0 0 0 0 0 0 0 0 0 0 0 0 0 0 0 0 0 0 0 0 0 0 0 0 0 0 0 0 0 0 0 0 0 0 0 0 0 0 0
0 0 0 0 0 0 0 0 0 0 0 0 0 0 0 0 0 0 0 0 0 0 0 0 0 0 0 0 0 0 0 0 0 0 0 0 0 0 0 0 0 0 0
0 0 0 0 0 0 0 0 0 0 0 0 0 0 0 0 0 0 0 0 0 0 0 0 0 0 0 0 0 0 0 0 0 0 0 0 0 0 0 0 0 0 0
0 0 0 0 0 0 0 0 0 0 0 0 0 0 0 0 0 0 0 0 0 0 0 0 0 0 0 0 0 0 0 0 0 0 0 0 0 0 0 0 0 0 0
0 0 0 0 0 0 0 0 0 0 0 0 0 0 0 0 0 0 0 0 0 0 0 0 0 0 0 0 0 0 0 0 0 0 0 0 0 0 0 0 0 0 0
0 0 0 0 0 0 0 0 0 0 0 0 0 0 0 0 0 0 0 0 0 0 0 0 0 0 0 0 0 0 0 0 0 0 0 0 0 0 0 0 0 0 0
0 0 0 0 0 0 0 0 0 0 0 0 0 0 0 0 0 0 0 0 0 0 0 0 0 0 0 0 0 0 0 0 0 0 0 0 0 0 0 0 0 0 0
0 0 0 0 0 0 0 0 0 0 0 0 0 0 0 0 0 0 0 0 0 0 0 0 0 0 0 0 0 0 0 0 0 0 0 0 0 0 0 0 0 0 0
0 0 0 0 0 0 0 0 0 0 0 0 0 0 0 0 0 0 0 0 0 0 0 0 0 0 0 0 0 0 0 0 0 0 0 0 0 0 0 0 0 0 0
0 0 0 0 0 0 0 0 0 0 0 0 0 0 0 0 0 0 0 0 0 0 0 0 0 0 0 0 0 0 0 0 0 0 0 0 0 0 0 0 0 0 0
0 0 0 0 0 0 0 0 0 0 0 0 0 0 0 0 0 0 0 0 0 0 0 0 0 0 0 0 0 0 0 0 0 0 0 0 0 0 0 0 0 0 0
0 0 0 0 0 0 0 0 0 0 0 0 0 0 0 0 0 0 0 0 0 0 0 0 0 0 0 0 0 0 0 0 0 0 0 0 0 0 0 0 0 0 0
0 0 0 0 0 0 0 0 0 0 0 0 0 0 0 0 0 0 0 0 0 0 0 0 0 0 0 0 0 0 0 0 0 0 0 0 0 0 0 0 0 0 0
0 0 0 0 0 0 0 0 0 0 0 0 0 0 0 0 0 0 0 0 0 0 0 0 0 0 0 0 0 0 0 0 0 0 0 0 0 0 0 0 0 0 0
Height
5851 5849 5847 5845 5843 5841 5840 5838 5836 5834 5831 5829 5827 5825 5823 5821 5819 5817 5815 5812 5810 5808 5806 5805 5803 5802 5801 5800 5799 5798 5798 5798 5798 5799 5801 5802 5805 5807 5810 5813 5817 5820 5823
5849 5847 5845 5843 5841 5839 5837 5835 5833 5831 5829 5827 5825 5822 5820 5818 5816 5814 5812 5810 5808 5806 5804 5803 5801 5800 5798 5797 5796 5796 5795 5796 5796 5797 5798 5799 5801 5804 5806 5809 5812 5815 5818
5846 5844 5842 5840 5838 5836 5834 5832 5830 5828 5826 5824 5821 5819 5817 5815 5813 5811 5809 5807 5805 5803 5801 5799 5798 5797 5795 5794 5793 5793 5792 5792 5793 5794 5795 5796 5797 5799 5802 5804 5807 5809 5812
5843 5841 5839 5837 5835 5833 5830 5828 5826 5824 5822 5820 5817 5815 5813 5810 5808 5806 5804 5802 5801 5799 5797 5795 5793 5792 5791 5791 5790 5789 5789 5789 5789 5790 5791 5792 5793 5795 5797 5799 5802 5804 5807
5840 5837 5835 5832 5830 5828 5826 5823 5821 5819 5817 5815 5812 5810 5807 5805 5802 5800 5798 5796 5795 5793 5791 5790 5788 5787 5787 5786 5785 5785 5784 5784 5785 5785 5786 5787 5788 5790 5792 5794 5796 5798 5801
5835 5833 5830 5827 5825 5822 5820 5818 5815 5813 5811 5809 5806 5804 5801 5798 5796 5793 5791 5789 5787 5786 5785 5783 5782 5782 5781 5780 5780 5779 5779 5779 5780 5780 5780 5781 5783 5784 5786 5788 5790 5792 5795
5830 5827 5825 5822 5819 5816 5814 5811 5809 5807 5804 5802 5799 5796 5794 5791 5788 5785 5782 5781 5779 5778 5776 5775 5774 5774 5774 5773 5773 5773 5773 5773 5773 5774 5774 5775 5777 5778 5779 5781 5783 5786 5788
5824 5821 5818 5816 5813 5810 5807 5804 5802 5799 5797 5794 5791 5788 5785 5782 5778 5776 5773 5771 5770 5768 5767 5766 5765 5765 5765 5765 5765 5765 5765 5766 5766 5767 5768 5768 5770 5771 5773 5775 5776 5779 5781
5818 5815 5812 5809 5806 5803 5799 5796 5793 5790 5788 5784 5781 5778 5775 5772 5768 5765 5762 5760 5758 5757 5756 5755 5754 5754 5755 5755 5756 5756 5757 5757 5758 5759 5760 5761 5762 5764 5765 5767 5769 5771 5773
5810 5807 5804 5800 5797 5794 5791 5787 5784 5780 5777 5774 5770 5766 5763 5759 5756 5752 5749 5746 5745 5744 5743 5742 5742 5742 5743 5743 5744 5746 5747 5748 5749 5750 5751 5753 5754 5756 5757 5759 5762 5764 5765
5802 5798 5795 5791 5788 5784 5780 5776 5772 5769 5765 5761 5758 5754 5750 5746 5742 5738 5734 5731 5730 5728 5728 5728 5727 5728 5729 5730 5732 5734 5735 5737 5738 5740 5742 5744 5746 5747 5749 5751 5753 5755 5757
5793 5789 5785 5781 5777 5773 5768 5764 5759 5755 5751 5747 5743 5739 5734 5730 5726 5722 5718 5715 5713 5712 5712 5712 5712 5712 5714 5716 5718 5721 5723 5725 5727 5729 5731 5734 5736 5738 5740 5742 5743 5746 5748
5782 5778 5774 5770 5765 5760 5755 5750 5745 5740 5735 5730 5726 5721 5717 5712 5708 5704 5701 5698 5696 5694 5694 5695 5695 5696 5698 5701 5704 5707 5709 5712 5714 5717 5720 5723 5725 5728 5730 5732 5734 5737 5739
5771 5766 5762 5757 5752 5747 5741 5735 5729 5723 5718 5712 5707 5702 5697 5693 5689 5685 5682 5680 5678 5676 5676 5677 5678 5679 5681 5684 5688 5691 5695 5698 5701 5705 5708 5711 5714 5717 5719 5722 5724 5727 5730
5758 5754 5748 5743 5738 5732 5726 5719 5713 5707 5699 5693 5688 5682 5677 5674 5670 5665 5662 5660 5659 5657 5657 5658 5660 5661 5663 5667 5671 5674 5678 5683 5687 5691 5695 5698 5701 5704 5708 5711 5714 5716 5720
5745 5739 5734 5728 5722 5716 5710 5704 5697 5690 5683 5676 5669 5663 5658 5654 5650 5646 5642 5640 5638 5637 5636 5638 5641 5642 5645 5649 5652 5656 5661 5666 5671 5676 5680 5684 5688 5692 5695 5699 5702 5705 5709
5730 5724 5718 5712 5705 5699 5692 5686 5680 5674 5666 5658 5651 5645 5639 5634 5630 5626 5623 5620 5619 5617 5617 5619 5621 5624 5626 5630 5634 5638 5644 5650 5655 5660 5665 5670 5674 5679 5683 5686 5690 5694 5697
5714 5708 5701 5694 5688 5681 5674 5667 5660 5653 5648 5641 5634 5627 5621 5616 5612 5608 5604 5602 5601 5600 5599 5600 5602 5605 5608 5612 5615 5620 5626 5632 5638 5644 5649 5654 5660 5665 5669 5674 5678 5682 5686
5698 5691 5684 5677 5670 5663 5655 5648 5641 5634 5627 5621 5615 5609 5603 5598 5594 5590 5587 5584 5582 5582 5581 5582 5583 5586 5589 5593 5597 5602 5607 5613 5620 5626 5632 5638 5644 5650 5655 5660 5665 5669 5674
5681 5674 5667 5660 5652 5645 5637 5630 5622 5615 5608 5601 5596 5590 5585 5580 5577 5574 5570 5567 5565 5564 5563 5564 5566 5568 5571 5575 5579 5584 5590 5596 5603 5609 5616 5622 5629 5635 5641 5646 5652 5656 5661
5664 5657 5650 5642 5634 5627 5619 5611 5604 5597 5590 5584 5578 5572 5567 5563 5560 5556 5554 5551 5549 5547 5547 5547 5549 5551 5554 5558 5563 5567 5573 5580 5587 5593 5600 5607 5613 5620 5627 5632 5638 5643 5648
5646 5639 5632 5624 5617 5609 5601 5594 5586 5579 5572 5566 5561 5556 5551 5547 5543 5540 5538 5535 5533 5532 5531 5531 5533 5535 5538 5542 5547 5552 5558 5564 5571 5578 5586 5592 5599 5606 5613 5619 5624 5630 5635
5628 5621 5614 5607 5599 5591 5584 5577 5569 5562 5555 5549 5543 5539 5535 5532 5528 5525 5522 5520 5518 5517 5516 5516 5517 5520 5523 5526 5531 5536 5543 5549 5556 5563 5570 5578 5585 5592 5598 5605 5611 5617 5623
5610 5603 5596 5588 5581 5574 5566 5559 5552 5545 5538 5533 5528 5523 5520 5516 5513 5510 5507 5505 5503 5502 5501 5502 5503 5505 5508 5511 5516 5522 5528 5535 5542 5549 5556 5563 5570 5578 5585 5592 5598 5604 5610
5592 5585 5578 5570 5563 5556 5549 5542 5535 5529 5523 5517 5513 5509 5505 5501 5498 5496 5493 5491 5489 5488 5487 5488 5489 5491 5494 5497 5502 5508 5514 5521 5528 5535 5542 5549 5556 5564 5571 5578 5585 5592 5597
5575 5567 5560 5553 5546 5539 5532 5526 5520 5514 5508 5503 5498 5494 5490 5487 5485 5482 5480 5477 5475 5474 5474 5475 5475 5477 5480 5484 5488 5494 5501 5508 5515 5522 5529 5536 5543 5551 5558 5566 5573 5580 5586
Wind_Speed
13 13 14 15 16 17 17 18 19 19 20 20 20 20 20 20 20 21 20 20 19 17 16 15 13 12 12 11 10 9 8 9 10 11 13 16 18 20 21 24 25 25 25
13 14 15 16 17 17 18 18 19 20 21 21 21 21 21 21 21 21 21 21 20 18 17 16 15 14 13 13 13 12 11 10 11 12 13 15 17 19 21 23 24 24 25
15 16 16 17 18 19 19 19 20 21 22 23 23 23 23 23 22 22 22 21 21 20 19 18 17 16 15 15 14 13 12 12 12 13 15 16 17 19 21 23 23 24 24
16 17 18 19 20 20 20 21 22 23 23 24 24 25 25 25 25 25 24 23 22 22 21 20 19 18 17 16 15 15 15 14 14 14 16 17 18 20 21 22 23 24 24
18 19 21 22 22 22 22 23 24 24 25 26 26 27 27 27 27 27 27 26 25 24 23 21 20 20 19 18 17 17 17 16 16 17 17 18 19 21 22 23 24 24 24
20 21 23 24 24 24 25 25 26 27 27 28 28 29 29 30 30 30 30 29 28 27 26 24 23 22 21 21 20 19 18 19 19 19 19 20 20 21 23 23 24 25 25
23 24 25 26 26 27 27 28 28 29 30 30 31 31 32 32 33 33 32 32 31 30 29 28 27 25 24 24 23 22 21 21 20 20 20 21 21 22 23 23 24 24 25
26 27 28 28 28 29 30 30 31 32 32 33 34 34 35 35 35 35 35 34 34 33 33 32 30 29 28 27 26 25 25 24 23 22 22 22 22 22 23 24 25 25 26
28 29 30 30 31 32 33 33 34 35 36 37 37 38 38 38 38 38 38 37 37 36 36 35 34 33 31 31 30 29 27 27 26 25 25 24 24 24 25 25 25 26 26
31 32 33 33 34 35 36 37 38 39 39 40 41 41 42 42 42 42 42 41 40 40 39 38 37 36 34 34 33 32 31 30 29 28 27 27 26 25 26 26 27 27 27
34 35 36 37 38 39 40 41 42 43 44 44 45 45 46 46 46 45 45 45 44 43 42 41 40 39 38 37 37 35 34 33 32 31 30 29 28 27 26 26 27 27 28
37 38 39 40 41 43 44 45 47 47 48 49 49 50 50 50 50 49 49 48 47 46 44 43 42 42 41 40 39 38 37 36 35 34 33 32 30 29 28 28 27 27 27
41 42 43 44 45 47 48 50 51 52 52 53 54 54 54 53 52 51 51 50 48 47 46 45 44 44 45 43 42 42 41 39 38 37 36 34 33 32 31 30 30 29 28
44 45 46 48 49 51 53 54 55 55 56 56 57 56 56 55 54 53 52 51 50 48 47 47 46 46 46 46 45 44 43 42 41 40 38 37 36 35 34 33 32 31 30
47 49 50 52 54 55 56 56 57 58 58 59 58 58 57 55 54 54 54 53 52 50 49 49 48 47 47 47 47 46 45 45 44 42 41 40 39 38 36 35 34 33 32
51 52 54 56 57 58 58 59 59 60 60 60 60 59 58 57 56 55 55 54 53 51 50 49 48 47 47 48 49 48 47 46 46 44 43 42 41 39 38 37 35 35 33
54 56 58 59 60 61 61 61 61 61 61 61 60 59 58 57 56 55 53 52 51 50 49 49 48 47 47 48 50 50 48 47 47 46 44 43 43 41 40 38 37 35 34
58 60 61 62 63 63 64 64 64 64 63 62 60 58 57 55 54 53 51 50 50 50 49 49 49 47 47 48 49 49 48 48 48 47 46 44 44 43 42 40 39 37 36
60 62 63 64 65 65 66 66 66 65 64 62 59 56 54 53 52 51 50 49 48 48 48 49 48 47 46 49 49 49 48 48 49 49 47 45 44 44 43 42 40 39 38
62 64 65 66 66 66 66 66 65 65 63 61 58 55 53 52 50 49 48 47 47 46 46 47 47 46 45 47 49 49 49 48 48 48 47 45 44 44 44 43 42 41 39
64 65 66 67 67 67 67 66 65 64 62 60 57 54 52 50 49 47 45 45 45 44 44 45 46 44 43 45 46 47 48 48 47 47 47 44 43 44 43 43 42 41 41
66 67 68 68 68 67 66 65 65 63 62 59 56 52 50 48 47 46 45 43 43 43 42 42 43 43 42 43 45 46 47 48 48 46 45 43 43 43 44 43 42 41 41
68 68 69 68 67 67 66 66 64 62 60 58 54 50 48 46 45 44 44 43 42 41 41 41 41 42 41 42 45 45 46 47 47 47 46 44 42 43 43 43 42 42 40
69 69 69 68 67 66 65 64 62 60 57 54 51 48 47 45 44 43 42 42 41 40 39 39 39 40 40 41 44 46 46 46 46 46 46 46 43 42 43 43 42 41 40
69 68 68 67 66 65 64 62 60 57 54 52 50 47 45 43 42 41 40 40 39 38 37 37 38 38 39 40 42 44 44 44 45 44 43 44 44 43 43 42 42 41 40
68 67 67 66 65 63 61 59 57 54 51 49 47 44 42 41 40 38 38 37 37 36 36 36 37 37 36 37 39 41 42 43 44 44 43 43 44 44 43 42 41 41 40
Wind_Direction
344 344 343 341 338 337 336 336 335 334 333 332 332 332 332 333 333 334 334 334 332 329 328 325 321 316 312 311 305 292 282 269 254 244 240 236 233 229 229 229 232 233 233
336 337 337 336 336 335 334 334 334 334 332 331 329 328 328 327 327 327 327 327 327 325 321 318 315 309 305 303 298 289 279 267 256 249 244 238 233 230 231 230 231 233 234
329 331 332 332 332 331 331 330 330 329 328 328 328 326 325 324 322 321 320 320 319 319 317 312 307 303 300 299 296 289 280 269 260 254 248 242 238 235 234 233 232 232 234
324 326 326 327 327 326 325 325 325 324 324 323 323 322 320 319 318 317 315 313 312 311 310 307 303 297 293 292 290 285 276 270 264 257 251 246 243 240 238 235 233 234 236
320 322 322 322 322 322 321 320 320 320 320 319 319 318 317 315 314 312 311 309 307 305 304 301 298 294 289 286 285 281 274 269 265 259 254 250 247 242 239 238 237 237 239
317 319 320 320 320 320 319 318 317 317 317 316 316 315 313 312 310 308 306 304 303 301 298 295 291 287 285 282 280 278 273 268 265 261 257 252 249 245 242 240 240 239 240
314 316 316 317 317 317 316 315 315 314 314 314 313 312 310 308 306 304 302 300 297 296 294 291 287 283 280 278 276 274 271 267 264 262 259 255 250 246 243 241 242 242 242
311 312 313 313 313 313 313 313 312 312 312 311 311 309 307 306 304 302 300 297 294 291 289 287 284 280 276 274 272 271 268 265 262 260 258 256 253 248 245 243 242 243 242
308 309 309 309 310 310 310 310 310 309 309 309 308 307 306 304 301 300 297 295 292 288 285 282 280 276 273 271 269 267 265 263 261 258 257 255 254 251 247 245 245 244 244
307 307 307 307 307 308 308 308 308 307 307 306 306 305 304 302 300 297 295 293 290 287 283 280 276 272 269 268 266 264 262 260 258 256 255 254 253 251 248 247 247 246 246
305 305 305 305 306 307 307 307 307 306 305 304 303 303 302 300 297 294 292 290 288 285 282 278 273 268 265 264 263 262 261 258 257 255 253 252 252 250 249 248 247 246 245
303 304 304 305 305 306 306 306 306 305 304 303 302 301 300 298 295 292 289 288 286 283 280 276 271 266 263 260 259 259 258 257 256 254 252 251 251 249 249 248 248 249 247
302 303 304 304 305 306 306 306 305 304 303 302 301 300 299 296 292 289 287 286 284 281 278 274 270 266 262 258 256 256 256 255 255 254 252 250 249 248 248 248 248 248 248
302 303 304 305 305 306 306 306 305 304 303 302 301 300 298 295 291 288 286 284 281 279 275 272 269 264 261 257 254 253 253 253 252 252 251 250 249 247 247 247 247 247 247
302 304 305 305 306 306 306 306 306 305 304 303 301 299 297 295 292 289 286 283 280 277 274 271 267 264 260 255 253 251 250 249 250 250 249 248 248 248 247 245 245 246 246
303 304 305 306 306 306 306 305 306 306 305 303 301 299 297 294 292 290 288 285 280 275 273 270 266 263 259 254 251 250 248 247 247 247 247 247 247 247 247 245 244 245 245
303 304 305 306 306 306 305 305 305 305 305 303 300 297 295 293 291 290 287 284 280 275 272 269 265 262 258 252 249 248 247 245 244 244 244 245 246 245 245 244 244 243 243
304 305 305 306 306 306 305 305 305 305 305 303 300 298 295 292 291 289 287 284 280 276 273 269 265 261 257 251 249 248 245 244 243 242 242 243 243 243 243 243 243 242 242
304 305 306 306 307 306 306 305 305 305 305 304 301 298 295 292 290 289 287 285 282 276 271 267 264 261 256 250 247 245 244 243 241 240 240 240 240 241 241 241 241 241 241
304 305 306 307 307 307 306 306 305 306 305 304 302 299 295 293 291 289 286 284 281 277 271 266 262 261 256 250 245 243 242 241 238 238 238 239 238 239 239 240 239 239 240
304 305 306 306 307 307 307 307 306 306 305 304 302 299 295 293 291 289 286 284 281 277 272 267 262 260 255 248 244 241 238 237 237 236 236 237 237 237 238 239 239 238 238
304 305 306 306 307 307 307 307 307 306 304 303 301 297 294 292 291 288 286 284 281 278 272 267 262 257 253 246 242 240 236 235 234 233 233 236 236 235 235 237 238 237 237
304 305 306 306 306 306 307 307 307 305 304 303 300 296 293 291 289 288 286 283 281 277 272 267 262 255 251 246 240 237 234 233 233 232 231 233 233 233 234 235 236 236 236
304 305 305 306 306 306 307 307 306 305 303 302 299 296 293 290 289 288 286 284 280 276 272 267 262 256 251 246 239 235 233 232 232 231 230 231 229 230 231 232 233 234 235
304 305 305 305 305 306 306 306 305 304 303 301 299 296 292 290 289 288 285 284 281 276 272 268 262 257 252 246 239 234 231 230 231 228 228 228 227 228 228 229 230 231 231
304 304 304 305 305 305 305 305 304 303 302 301 299 296 292 289 289 288 286 284 281 277 273 269 262 257 251 244 237 232 230 229 229 227 228 227 226 227 226 226 228 228 230